TimeEST,TemperatureF,Dew PointF,Humidity,Sea Level PressureIn,VisibilityMPH,Wind Direction,Wind SpeedMPH,Gust SpeedMPH,PrecipitationIn,Events,Conditions,WindDirDegrees,DateUTC
12:15 AM,30.2,30.2,100,30.00,0.2,East,4.6,-,0.03,,Overcast,90,2013-01-16 05:15:00
12:35 AM,30.2,30.2,100,30.00,0.2,SE,4.6,-,0.06,,Overcast,130,2013-01-16 05:35:00
1:15 AM,30.2,30.2,100,30.01,0.2,Calm,Calm,-,0.03,,Overcast,0,2013-01-16 06:15:00
1:35 AM,30.2,30.2,100,30.01,0.5,SSE,3.5,-,0.05,,Overcast,150,2013-01-16 06:35:00
1:55 AM,32.0,32.0,100,30.00,2.0,Calm,Calm,-,N/A,,Overcast,0,2013-01-16 06:55:00
2:15 AM,32.0,32.0,100,30.01,0.2,SSE,3.5,-,0.03,Snow,Light Snow,160,2013-01-16 07:15:00
2:35 AM,30.2,30.2,100,29.99,0.2,SE,3.5,-,0.04,,Overcast,140,2013-01-16 07:35:00
2:55 AM,30.2,30.2,100,29.98,0.2,Calm,Calm,-,N/A,Snow,Light Snow,0,2013-01-16 07:55:00
3:15 AM,32.0,32.0,100,29.99,0.2,South,3.5,-,N/A,Snow,Light Snow,180,2013-01-16 08:15:00
3:35 AM,33.8,33.8,100,29.98,0.2,South,3.5,-,N/A,Fog,Fog,170,2013-01-16 08:35:00
3:55 AM,33.8,33.8,100,29.97,0.2,Calm,Calm,-,N/A,Snow,Light Snow,0,2013-01-16 08:55:00
4:15 AM,35.6,35.6,100,29.96,0.2,South,3.5,-,0.01,Fog,Fog,190,2013-01-16 09:15:00
4:35 AM,35.6,35.6,100,29.96,0.2,SW,3.5,-,0.03,Snow,Light Snow,220,2013-01-16 09:35:00
5:15 AM,37.4,37.4,100,29.95,0.2,SW,6.9,-,0.05,Rain,Rain,220,2013-01-16 10:15:00
5:35 AM,39.2,39.2,100,29.94,4.0,SW,9.2,-,0.01,Rain,Light Rain,220,2013-01-16 10:35:00
5:55 AM,37.4,37.4,100,29.95,0.2,SW,13.8,-,0.02,Rain,Rain,230,2013-01-16 10:55:00
6:15 AM,42.8,42.8,100,29.94,2.0,WSW,15.0,-,0.05,Rain,Light Rain,240,2013-01-16 11:15:00
6:55 AM,42.8,42.8,100,29.95,0.5,WSW,18.4,-,0.03,Rain,Light Rain,250,2013-01-16 11:55:00
7:35 AM,42.8,42.8,100,29.96,0.5,WSW,13.8,19.6,0.14,Rain,Light Rain,240,2013-01-16 12:35:00
7:55 AM,44.6,44.6,100,29.98,0.5,WSW,15.0,-,0.01,,Light Drizzle,240,2013-01-16 12:55:00
8:15 AM,42.8,42.8,100,29.98,0.2,WSW,16.1,-,0.01,Rain,Light Rain,250,2013-01-16 13:15:00
8:35 AM,44.6,44.6,100,30.00,0.2,West,13.8,-,0.02,,Drizzle,260,2013-01-16 13:35:00
8:55 AM,41.0,41.0,100,30.03,0.2,West,10.4,17.3,0.02,Rain,Rain,280,2013-01-16 13:55:00
9:15 AM,41.0,41.0,100,30.02,0.2,West,16.1,-,0.05,Rain,Light Rain,270,2013-01-16 14:15:00
9:35 AM,42.8,42.8,100,30.03,0.2,WSW,17.3,-,0.05,Rain,Rain,250,2013-01-16 14:35:00
9:55 AM,44.6,44.6,100,30.01,0.2,West,19.6,23.0,0.01,Rain,Rain,270,2013-01-16 14:55:00
10:15 AM,44.6,44.6,100,30.00,-9999.0,West,20.7,26.5,N/A,,Unknown,270,2013-01-16 15:15:00
10:35 AM,44.6,44.6,100,29.98,-9999.0,West,18.4,24.2,N/A,,Unknown,260,2013-01-16 15:35:00
10:55 AM,44.6,44.6,100,29.97,-9999.0,West,23.0,27.6,N/A,,Unknown,260,2013-01-16 15:55:00
11:15 AM,44.6,44.6,100,29.94,10.0,WSW,24.2,28.8,N/A,,Overcast,250,2013-01-16 16:15:00
11:35 AM,46.4,46.4,100,29.93,10.0,WSW,18.4,26.5,N/A,,Overcast,250,2013-01-16 16:35:00
11:55 AM,46.4,46.4,100,29.92,10.0,WSW,18.4,25.3,N/A,,Overcast,240,2013-01-16 16:55:00
12:15 PM,46.4,44.6,93,29.91,10.0,WSW,21.9,32.2,N/A,,Overcast,240,2013-01-16 17:15:00
12:35 PM,48.2,42.8,82,29.90,10.0,WSW,21.9,29.9,N/A,,Overcast,240,2013-01-16 17:35:00
12:55 PM,48.2,42.8,82,29.90,10.0,WSW,23.0,34.5,N/A,,Overcast,250,2013-01-16 17:55:00
1:15 PM,48.2,42.8,82,29.90,10.0,WSW,21.9,29.9,N/A,,Overcast,250,2013-01-16 18:15:00
1:35 PM,44.6,42.8,93,29.89,10.0,WSW,16.1,19.6,N/A,,Overcast,250,2013-01-16 18:35:00
1:55 PM,46.4,42.8,87,29.90,10.0,WSW,20.7,-,N/A,,Overcast,250,2013-01-16 18:55:00
2:15 PM,46.4,42.8,87,29.90,10.0,West,18.4,25.3,N/A,,Overcast,260,2013-01-16 19:15:00
2:35 PM,44.6,42.8,93,29.91,10.0,West,19.6,26.5,N/A,,Drizzle,260,2013-01-16 19:35:00
2:55 PM,44.6,42.8,93,29.91,10.0,West,20.7,25.3,N/A,,Light Drizzle,260,2013-01-16 19:55:00
3:15 PM,44.6,42.8,93,29.91,10.0,West,21.9,28.8,N/A,,Drizzle,260,2013-01-16 20:15:00
3:35 PM,42.8,42.8,100,29.91,10.0,West,16.1,24.2,N/A,,Light Drizzle,260,2013-01-16 20:35:00
3:55 PM,42.8,42.8,100,29.90,1.0,West,19.6,25.3,N/A,,Overcast,260,2013-01-16 20:55:00
4:15 PM,42.8,42.8,100,29.92,0.2,West,15.0,25.3,N/A,,Drizzle,280,2013-01-16 21:15:00
4:35 PM,41.0,41.0,100,29.93,0.2,West,16.1,21.9,N/A,Rain,Rain,280,2013-01-16 21:35:00
4:55 PM,39.2,39.2,100,29.95,0.2,WNW,15.0,24.2,N/A,,Unknown,290,2013-01-16 21:55:00
5:15 PM,37.4,37.4,100,29.95,0.2,West,16.1,23.0,N/A,Snow,Snow,280,2013-01-16 22:15:00
5:35 PM,37.4,37.4,100,29.96,0.2,West,19.6,24.2,N/A,Rain,Light Rain,270,2013-01-16 22:35:00
5:55 PM,37.4,37.4,100,29.96,0.2,West,15.0,-,N/A,Snow,Light Snow,260,2013-01-16 22:55:00
6:15 PM,37.4,37.4,100,29.97,0.2,West,15.0,19.6,N/A,Rain,Light Rain,270,2013-01-16 23:15:00
6:35 PM,37.4,37.4,100,29.98,0.5,West,18.4,23.0,N/A,Snow,Light Snow,280,2013-01-16 23:35:00
6:55 PM,35.6,35.6,100,29.99,0.8,West,18.4,26.5,N/A,Rain,Light Rain,270,2013-01-16 23:55:00
7:15 PM,35.6,35.6,100,29.98,0.2,West,13.8,-,N/A,Rain,Light Rain,260,2013-01-17 00:15:00
7:35 PM,35.6,35.6,100,29.99,0.2,West,15.0,20.7,N/A,Snow,Light Snow,270,2013-01-17 00:35:00
7:55 PM,35.6,35.6,100,29.99,0.2,West,15.0,-,N/A,Snow,Light Snow,280,2013-01-17 00:55:00
8:15 PM,35.6,35.6,100,29.98,0.2,West,11.5,-,N/A,Snow,Light Snow,260,2013-01-17 01:15:00
8:35 PM,35.6,35.6,100,29.99,0.2,West,13.8,-,N/A,Snow,Light Snow,260,2013-01-17 01:35:00
8:55 PM,35.6,35.6,100,29.99,0.2,WSW,11.5,-,N/A,Snow,Snow,250,2013-01-17 01:55:00
9:15 PM,35.6,35.6,100,29.99,0.2,West,12.7,-,N/A,Snow,Light Snow,260,2013-01-17 02:15:00
9:55 PM,33.8,33.8,100,29.98,0.2,West,13.8,-,N/A,Snow,Light Snow,260,2013-01-17 02:55:00
10:15 PM,33.8,33.8,100,29.98,0.2,West,16.1,-,N/A,Snow,Light Snow,270,2013-01-17 03:15:00
10:35 PM,33.8,33.8,100,29.98,0.2,West,15.0,20.7,N/A,Snow,Light Snow,280,2013-01-17 03:35:00
10:55 PM,33.8,33.8,100,29.98,0.2,West,15.0,19.6,N/A,Snow,Light Snow,270,2013-01-17 03:55:00
11:15 PM,33.8,33.8,100,29.97,0.2,West,17.3,-,N/A,Snow,Light Snow,260,2013-01-17 04:15:00
11:35 PM,35.6,35.6,100,29.98,0.2,West,16.1,-,N/A,Snow,Light Snow,260,2013-01-17 04:35:00
11:55 PM,35.6,35.6,100,29.98,0.2,West,17.3,-,N/A,Snow,Light Snow,270,2013-01-17 04:55:00